This is the latest recevied weather packets stored in our database for station/object OE5HCE. If no packets are shown the sender has not sent any weather packets the latest 10 day(s).
| Time | Temp. | Humidity | Pressure | Rain* | Wind** | Luminosity | Snow |
|---|---|---|---|---|---|---|---|
| 1777519839 | 2.78° C | 56% | 1030.2 hPa | 0 mm | - | 0 W/m² | - |
| 1777518934 | 2.78° C | 55% | 1030 hPa | 0 mm | - | 0 W/m² | - |
| 1777518033 | 2.78° C | 56% | 1030 hPa | 0 mm | - | 0 W/m² | - |
| 1777517136 | 2.78° C | 55% | 1030.1 hPa | 0 mm | - | 0 W/m² | - |
| 1777516238 | 3.33° C | 54% | 1030.1 hPa | 0 mm | - | 0 W/m² | - |
| 1777515327 | 3.33° C | 53% | 1029.9 hPa | 0 mm | - | 0 W/m² | - |
| 1777514427 | 3.33° C | 53% | 1029.9 hPa | 0 mm | - | 0 W/m² | - |
| 1777513523 | 3.89° C | 51% | 1029.9 hPa | 0 mm | - | 0 W/m² | - |
| 1777512623 | 3.89° C | 50% | 1030.1 hPa | 0 mm | - | 0 W/m² | - |
| 1777511719 | 4.44° C | 49% | 1030 hPa | 0 mm | - | 0 W/m² | - |
| 1777510840 | 4.44° C | 48% | 1030 hPa | 0 mm | - | 0 W/m² | - |
| 1777509914 | 5° C | 46% | 1029.9 hPa | 0 mm | - | 0 W/m² | - |
| 1777509013 | 5° C | 45% | 1029.9 hPa | 0 mm | - | 0 W/m² | - |
| 1777508123 | 5.56° C | 45% | 1030 hPa | 0 mm | - | 0 W/m² | - |
| 1777507209 | 5.56° C | 45% | 1030 hPa | 0 mm | - | 0 W/m² | - |
| 1777506308 | 5.56° C | 43% | 1029.8 hPa | 0 mm | - | 0 W/m² | - |
| 1777505405 | 6.11° C | 43% | 1029.8 hPa | 0 mm | - | 0 W/m² | - |
| 1777504501 | 6.11° C | 43% | 1029.7 hPa | 0 mm | - | 0 W/m² | - |
| 1777503659 | 6.11° C | 42% | 1029.5 hPa | 0 mm | - | 0 W/m² | - |
| 1777502762 | 6.67° C | 41% | 1029.4 hPa | 0 mm | - | 0 W/m² | - |
| 1777501856 | 6.67° C | 40% | 1029.2 hPa | 0 mm | - | 0 W/m² | - |
| 1777500974 | 6.67° C | 40% | 1029.1 hPa | 0 mm | - | 0 W/m² | - |
| 1777500052 | 7.22° C | 39% | 1028.9 hPa | 0 mm | - | 0 W/m² | - |
| 1777499153 | 7.22° C | 38% | 1028.8 hPa | 0 mm | - | 0 W/m² | - |
| 1777498249 | 7.78° C | 39% | 1028.4 hPa | 0 mm | - | 0 W/m² | - |
* Rain latest hour (hover to see other rain measurements)
** Current wind speed in m/s (hover to see current wind gust speed)